Tracking 19831 objects as of 23-Aug-2019
HD Live streaming from Space Station
objects crossing your sky now

COSMOS 2251 DEB

Track COSMOS 2251 DEB now!
10-day predictions


NORAD ID: 34319
Int'l Code: 1993-036NR
Perigee: 696.8 km
Apogee: 734.2 km
Inclination: 74.0 °
Period: 98.9 minutes
Semi major axis: 7086 km
RCS: 0.023 m2 (small)
Launch date: June 16, 1993
Source: Commonwealth of Independent States (former USSR) (CIS)
Launch site: PLESETSK MISSILE AND SPACE COMPLEX (PKMTR)

Note: This is SATELLITE DEBRIS
aabbcc
Your satellite tracking list
Your tracking list is empty




NASA's NSSDC Master Catalog

Two Line Element Set (TLE):
1 34319U 93036NR  19234.90623285 +.00000984 +00000-0 +23265-3 0  9997
2 34319 074.0304 078.4121 0026371 349.7563 010.3059 14.55301517553811
Source of the keplerian elements: AFSPC